Flag for Israel Weather past 2 weeks in Hadera, Israel

Now
66 °F

Sunny.


Feels Like: 66 °F
Forecast: 56 / 71 °F
Wind: 6 mph from West

Location: Dov Airport

Current Time: Feb 1, 2015 at 2:51:44 PM

Latest Report: Feb 1, 2015 at 1:50 PM


Visibility: 10 mi

Pressure: 30.01 "Hg

Humidity: 43%

Dew point: 43 °F

Location of HaderaLocation

Historic Weather in Hadera — Graph

°F

Hadera temperature yesterday

Maximum temperature yesterday: 66 °F (at 12:50 PM)
Minimum temperature yesterday: 52 °F (at 6:00 AM)
Average temperature yesterday: 60 °F

Past Weeks' High & Low Weather Summary

 TemperatureHumidityPressure
High72 °F (Jan 21, 3:50 PM)94% (Jan 25, 7:50 PM)30.30 "Hg (Jan 25, 7:50 PM)
Low48 °F (Jan 18, 5:50 AM)31% (Jan 24, 9:50 AM)29.86 "Hg (Jan 27, 10:50 PM)
Average60 °F62%30.06 "Hg
* Reported Jan 17 12:50 PM — Feb 1 12:50 PM, Hadera, Weather by CustomWeather, © 2014

Note: Actual official high and low records may vary slightly from our data, if they occured in-between our weather recording intervals... More about our weather records

Advertising

Hadera weather history for previous 24 hours

 ConditionsComfort  
Time TempWeatherWind HumidityBarometerVisibility
12:50 PM
Feb 1
64 °FSunny.6 mph43%30.04 "Hg10 mi
11:50 AM64 °FSunny.5 mph40%30.04 "Hg10 mi
10:50 AM63 °FSunny.3 mph37%30.07 "Hg10 mi
9:50 AM61 °FSunny.2 mph39%30.09 "Hg10 mi
8:50 AM59 °FSunny.1 mph45%30.09 "Hg10 mi
7:50 AM54 °FSunny.2 mph51%30.07 "Hg10 mi
6:50 AM50 °FSunny.5 mph58%30.07 "Hg10 mi
5:50 AM50 °FClear.6 mph58%30.07 "Hg10 mi
10:50 PM
Jan 31
54 °FClear.7 mph58%30.12 "Hg10 mi
9:50 PM55 °FClear.6 mph55%30.12 "Hg10 mi
8:50 PM57 °FClear.6 mph51%30.12 "Hg10 mi
7:50 PM57 °FClear.6 mph51%30.09 "Hg10 mi
6:50 PM59 °FClear.1 mph51%30.09 "Hg10 mi
5:50 PM63 °FClear.3 mph42%30.09 "Hg10 mi
4:50 PM63 °FSunny.5 mph39%30.09 "Hg10 mi
3:50 PM64 °FSunny.3 mph34%30.09 "Hg10 mi
2:50 PM64 °FSunny.6 mph37%30.09 "Hg10 mi
Weather by CustomWeather, © 2014

See weather overviewHow to use our weather pages